N0BGS Weather Reports


time (UTC)temp
F
wind
direction
speed
knots
gust
knots
rain 1hr
in
rain 24hr
in
rain mn
in
humidity
%
barometer
mb
20260508091025 32 0 0.0 0.0 0.00 0.00 0.00 90 1005.3
20260508090004 32 0 0.0 0.0 0.00 0.00 0.00 90 1005.1
20260508085004 32 0 0.0 0.0 0.00 0.00 0.00 90 1005.1
20260508084004 33 0 0.0 0.0 0.00 0.00 0.00 89 1005.1
20260508083003 33 0 0.0 0.0 0.00 0.00 0.00 88 1005.1
20260508082003 33 0 0.0 0.0 0.00 0.00 0.00 88 1005.2
20260508081004 34 0 0.0 0.0 0.00 0.00 0.00 88 1005.1
20260508080004 34 0 0.0 0.0 0.00 0.00 0.00 87 1005.0
20260508075003 35 0 0.0 0.0 0.00 0.00 0.00 85 1005.0
20260508074003 35 0 0.0 0.0 0.00 0.01 0.00 85 1005.0
20260508073003 36 0 0.0 0.0 0.00 0.01 0.00 83 1004.8
20260508072004 36 0 0.0 0.0 0.00 0.01 0.00 83 1004.9
20260508071024 36 0 0.0 0.0 0.00 0.01 0.00 81 1004.9
20260508070004 36 248 0.0 0.9 0.00 0.01 0.00 82 1005.0
20260508065003 36 262 0.0 6.1 0.00 0.01 0.00 85 1004.8
20260508064003 36 256 0.0 2.6 0.00 0.01 0.00 85 1004.9
20260508063004 37 252 0.0 1.7 0.00 0.01 0.00 83 1005.1
20260508062003 37 0 0.0 0.0 0.00 0.01 0.00 79 1005.3
20260508061003 37 252 0.0 0.9 0.00 0.01 0.00 79 1005.4
20260508060004 37 243 0.0 2.6 0.00 0.02 0.00 83 1005.4
20260508055003 37 243 0.9 6.1 0.00 0.03 0.00 83 1005.5
20260508054003 37 242 0.9 2.6 0.00 0.06 0.00 86 1005.6
20260508053003 37 247 0.0 3.5 0.00 0.07 0.00 89 1005.5
20260508052003 36 262 0.0 3.5 0.00 0.08 0.00 88 1005.6
20260508051003 36 270 0.0 2.6 0.00 0.08 0.00 85 1005.5
20260508050003 36 269 0.0 3.5 0.00 0.10 0.00 84 1005.6
20260508045024 36 268 0.0 3.5 0.00 0.10 0.00 85 1005.8
20260508044003 36 264 0.0 1.7 0.00 0.11 0.00 87 1005.8
20260508043003 37 0 0.0 0.0 0.00 0.11 0.00 87 1005.7
20260508042003 37 0 0.0 0.0 0.00 0.11 0.00 87 1005.9
20260508041003 36 0 0.0 0.0 0.00 0.12 0.00 83 1006.2
20260508040004 37 0 0.0 0.0 0.00 0.13 0.00 83 1006.3
20260508035003 37 0 0.0 0.0 0.00 0.14 0.13 85 1006.1
20260508034003 38 0 0.0 0.0 0.00 0.14 0.13 87 1006.2
20260508033004 38 0 0.0 0.0 0.00 0.14 0.13 84 1006.3
20260508032025 38 0 0.0 0.0 0.00 0.15 0.13 79 1006.2
20260508031004 38 0 0.0 0.0 0.00 0.15 0.13 81 1006.0
20260508030004 39 0 0.0 0.0 0.00 0.15 0.13 81 1005.9
20260508025004 40 277 0.0 2.6 0.00 0.15 0.13 77 1006.0
20260508024004 40 311 0.0 1.7 0.00 0.15 0.13 80 1005.8
20260508023025 40 0 0.0 0.0 0.00 0.15 0.13 72 1005.9
20260508022004 41 0 0.0 0.0 0.00 0.15 0.13 70 1005.8
20260508021004 42 0 0.0 0.0 0.00 0.15 0.13 67 1005.8
20260508020004 42 0 0.0 0.0 0.00 0.15 0.13 65 1005.9
20260508015004 43 311 0.0 0.9 0.00 0.15 0.13 62 1005.8
20260508014004 44 311 0.0 0.9 0.00 0.15 0.13 61 1005.8
20260508013004 45 317 0.0 1.7 0.00 0.16 0.13 59 1005.8
20260508012004 46 337 0.0 0.9 0.00 0.16 0.13 55 1005.8
20260508011004 47 335 0.0 3.5 0.00 0.17 0.13 51 1005.8
20260508010004 48 285 0.9 7.8 0.00 0.18 0.13 50 1005.7
20260508005003 48 283 1.7 9.6 0.00 0.19 0.13 51 1005.6
20260508004003 49 270 1.7 10.4 0.00 0.19 0.13 51 1005.4
20260508003004 49 282 2.6 11.3 0.00 0.19 0.13 50 1005.3
20260508002003 50 276 3.5 8.7 0.00 0.19 0.13 48 1005.3
20260508001003 50 271 4.3 13.0 0.00 0.19 0.13 47 1005.1
20260508000004 51 284 3.5 12.2 0.00 0.19 0.13 47 1005.1
20260507235004 52 277 2.6 12.2 0.00 0.19 0.13 45 1005.0
20260507234004 52 275 3.5 11.3 0.00 0.19 0.13 45 1004.7
20260507233004 53 280 3.5 13.0 0.00 0.20 0.13 45 1004.4
20260507232003 54 286 3.5 11.3 0.00 0.21 0.13 47 1004.2
20260507231003 55 279 2.6 13.0 0.00 0.23 0.13 47 1004.0
20260507230004 56 276 4.3 13.9 0.00 0.24 0.13 46 1003.6
20260507225003 56 285 3.5 16.5 0.00 0.25 0.13 47 1003.3
20260507224024 57 286 3.5 16.5 0.00 0.27 0.13 47 1003.0
20260507223003 59 272 4.3 13.0 0.00 0.32 0.13 44 1002.8
20260507222003 60 278 3.5 13.0 0.00 0.35 0.13 43 1002.7
20260507221003 61 274 5.2 12.2 0.00 0.37 0.13 38 1002.6
20260507220003 63 263 6.1 15.6 0.00 0.40 0.13 36 1002.5
20260507215003 64 266 5.2 15.6 0.00 0.41 0.13 36 1002.4
20260507214003 64 264 4.3 13.9 0.00 0.42 0.13 35 1002.4
20260507213003 63 258 5.2 11.3 0.00 0.44 0.13 40 1002.3
20260507212003 61 266 2.6 9.6 0.00 0.46 0.13 45 1002.2
20260507211003 61 264 2.6 9.6 0.00 0.48 0.13 45 1002.2
20260507210003 61 254 3.5 9.6 0.00 0.50 0.13 48 1002.2
20260507205003 61 265 4.3 10.4 0.00 0.52 0.13 46 1002.1
20260507204003 61 263 3.5 10.4 0.00 0.54 0.13 46 1002.0
20260507203003 62 270 3.5 10.4 0.00 0.57 0.13 46 1001.9
20260507202003 62 277 3.5 11.3 0.00 0.60 0.13 48 1001.9
20260507201003 61 248 3.5 8.7 0.00 0.61 0.13 51 1001.9
20260507200003 61 243 3.5 8.7 0.00 0.63 0.13 48 1001.9
20260507195024 61 235 3.5 8.7 0.00 0.63 0.13 48 1001.9
20260507194003 62 240 3.5 12.2 0.00 0.64 0.13 45 1001.9
20260507193003 63 231 5.2 12.2 0.00 0.65 0.13 43 1001.9
20260507192024 64 213 7.0 14.8 0.00 0.65 0.13 42 1002.0
20260507191003 64 220 6.1 13.0 0.00 0.65 0.13 44 1001.9
20260507190004 63 219 4.3 11.3 0.00 0.65 0.13 47 1002.0
20260507185003 64 228 4.3 9.6 0.00 0.65 0.13 48 1002.1
20260507184003 63 209 4.3 9.6 0.00 0.65 0.13 45 1002.2
20260507183003 62 227 4.3 10.4 0.00 0.65 0.13 47 1002.4
20260507182004 62 238 4.3 10.4 0.00 0.65 0.13 45 1002.5
20260507181004 64 207 4.3 13.9 0.00 0.65 0.13 45 1002.5
20260507180004 64 243 4.3 13.0 0.00 0.65 0.13 46 1002.6
20260507175025 63 255 4.3 9.6 0.00 0.65 0.13 50 1002.6
20260507174004 62 257 3.5 9.6 0.00 0.65 0.13 54 1002.8
20260507173004 62 260 2.6 7.8 0.00 0.65 0.13 50 1002.8
20260507172025 62 235 3.5 8.7 0.00 0.65 0.13 50 1002.9
20260507171025 63 230 5.2 11.3 0.00 0.65 0.13 45 1002.9
20260507170004 64 239 3.5 9.6 0.00 0.65 0.13 47 1002.9
20260507165004 63 218 3.5 12.2 0.00 0.65 0.13 47 1003.0
20260507164004 62 228 4.3 10.4 0.00 0.65 0.13 50 1003.2
20260507163004 62 254 2.6 7.8 0.00 0.65 0.13 52 1003.5
20260507162025 61 291 1.7 5.2 0.00 0.65 0.13 54 1003.6
20260507161004 61 265 2.6 7.0 0.00 0.65 0.13 52 1003.8
20260507160025 61 235 1.7 5.2 0.00 0.65 0.13 58 1003.8
20260507155004 61 255 3.5 7.0 0.00 0.65 0.13 54 1003.8
20260507154004 60 264 1.7 7.0 0.00 0.65 0.13 57 1003.9
20260507153025 60 236 1.7 7.0 0.00 0.65 0.13 57 1003.9
20260507152025 60 232 1.7 7.0 0.00 0.65 0.13 63 1004.0
20260507151004 60 315 0.9 3.5 0.00 0.65 0.13 61 1004.1
20260507150004 58 321 0.9 3.5 0.00 0.65 0.13 60 1004.2
20260507145004 58 342 1.7 5.2 0.00 0.65 0.13 61 1004.5
20260507144004 58 333 0.9 5.2 0.00 0.65 0.13 63 1004.6
20260507143004 57 292 1.7 7.0 0.00 0.65 0.13 67 1004.7
20260507142004 56 308 0.9 5.2 0.00 0.65 0.13 70 1004.9
20260507141025 56 287 1.7 5.2 0.00 0.65 0.13 68 1004.9
20260507140025 56 250 2.6 6.1 0.00 0.65 0.13 72 1004.9
20260507135004 56 261 1.7 7.0 0.00 0.65 0.13 70 1004.9
20260507134004 55 292 1.7 5.2 0.00 0.65 0.13 72 1005.0
20260507133004 54 288 1.7 8.7 0.00 0.65 0.13 72 1005.0
20260507132003 54 332 2.6 10.4 0.00 0.65 0.13 73 1005.2
20260507131003 54 271 2.6 7.0 0.00 0.65 0.13 71 1005.2
20260507130004 54 251 1.7 8.7 0.00 0.65 0.13 74 1005.1
20260507125004 54 274 1.7 7.0 0.00 0.65 0.13 78 1005.3
20260507124003 53 282 1.7 7.8 0.00 0.65 0.13 78 1005.2
20260507123003 52 260 2.6 8.7 0.00 0.65 0.13 78 1005.3
20260507122004 52 255 1.7 7.8 0.00 0.65 0.13 80 1005.5
20260507121003 50 278 0.9 5.2 0.00 0.65 0.13 84 1005.3
20260507120004 50 281 1.7 6.1 0.00 0.65 0.13 85 1005.7
20260507115003 49 270 0.9 4.3 0.00 0.65 0.13 84 1005.4
20260507114003 48 276 1.7 6.1 0.00 0.65 0.13 87 1006.0
20260507113004 48 287 0.9 3.5 0.00 0.65 0.13 92 1005.7
20260507112003 47 294 0.0 2.6 0.00 0.65 0.13 93 1005.6
20260507111003 46 298 0.9 4.3 0.00 0.65 0.13 93 1005.4
20260507110024 46 275 0.9 6.1 0.00 0.65 0.13 93 1005.5
20260507105003 46 281 0.9 5.2 0.00 0.65 0.13 94 1005.6
20260507104003 45 303 0.0 2.6 0.00 0.65 0.13 94 1005.2
20260507103003 45 304 0.0 2.6 0.00 0.65 0.13 95 1005.4
20260507102003 45 0 0.0 0.0 0.00 0.65 0.13 94 1005.0
20260507101003 44 304 0.0 0.9 0.00 0.65 0.13 95 1005.2
20260507100003 44 0 0.0 0.0 0.00 0.65 0.13 95 1005.2
20260507095024 44 0 0.0 0.0 0.00 0.65 0.13 94 1005.1
20260507094024 44 304 0.0 1.7 0.00 0.65 0.13 94 1004.9
20260507093003 44 0 0.0 0.0 0.00 0.65 0.13 94 1005.0
20260507092003 44 0 0.0 0.0 0.00 0.65 0.13 94 1005.4